Location: Capelle
(50.3413°N, 1.9974°E)
Time: 14:28:38
(UTC+00:00)

Cosmos 968 Rocket - Pass Details

Date: 12 January 2026
Orbit: 737 x 764 km, 74.0° (Epoch: 16 February)

Event Time Altitude Azimuth Distance (km) Brightness Sun altitude
Rises 18:41:29 0° 331° (NNW) 3,215 7.0 -22.9°
Reaches altitude 10° 18:43:56 10° 326° (NW) 2,282 6.3 -23.2°
Maximum altitude 18:48:50 46° 254° (WSW) 996 4.5 -24.0°
Drops below altitude 10° 18:53:42 10° 182° (S) 2,249 6.0 -24.8°
Sets 18:56:06 0° 177° (S) 3,164 6.7 -25.2°
